Preview of NWS' New Version of Forecast
This preview is not operational and should not be used for support decisions.

Regional Weather Roundup (RWR)

Issued by National Weather Service (NWS)

                            
000
ASUS42 KTBW 221016
RWRFL 
FLORIDA REGIONAL WEATHER ROUNDUP
NATIONAL WEATHER SERVICE TAMPA BAY RUSKIN FL
600 AM EDT WED MAY 22 2019

NOTE: "FAIR" INDICATES FEW OR NO CLOUDS BELOW 12,000 FEET WITH NO
SIGNIFICANT WEATHER AND/OR OBSTRUCTIONS TO VISIBILITY.

FLZ001>010-012>015-112-114-115-221100-
PANHANDLE FLORIDA
  
CITY           SKY/WX    TMP DP  RH WIND       PRES   REMARKS
PENSACOLA      FAIR      74  72  93 S7        29.97R                  
PENSACOLA NAS  FAIR      76  72  87 S9        29.97R                  
MILTON NAS     FAIR      62  62 100 E3        29.99  FOG              
CRESTVIEW      FOG       59  57  93 CALM      30.01R VSB 1/4          
DUKE FIELD     FOG       59  59 100 CALM      29.99R VSB 5/8          
VALPARAISO     FAIR      75  70  84 CALM      29.98S                  
MARY ESTHER    PTCLDY    75  70  83 CALM      29.97R                  
PANAMA CITY    FAIR      63  60  90 CALM      29.99R                  
TYNDALL AFB    FAIR      67  65  93 CALM      29.99R                  
APALACHICOLA   FAIR      66  63  90 CALM      29.99R                  

STATION/POSITION SKY/WX   TEMP    WIND        PRES    WAVE   SWELL
                          AIR SEA DIR/SP/G            HT/PER HT/PER
                          (F)     (DEG/KT/KT) (MB)    (FT/S) (FT/S)
30.1N   87.6W                                   N/A     3/ 5
29.2N   88.2W                     140/ 14/ 16 1014.4S   3/ 6
PANAMA CITY BEAC           74 81   10/  2/  3 1016.0R
TOWER C          NOT AVBL

$$
FLZ011-016>038-118-127-128-134-139-239-221100-
NORTH FLORIDA
  
CITY           SKY/WX    TMP DP  RH WIND       PRES   REMARKS
MARIANNA       FAIR      65  60  84 CALM      30.01R                  
TALLAHASSEE    FAIR      67  65  93 CALM      30.02R                  
PERRY          FAIR      71  70  97 CALM      30.02R                  
LIVE OAK       MOCLDY    73  70  88 CALM      30.01R                  
CROSS CITY     FAIR      72  70  93 SE3       30.01S                  
LAKE CITY      FAIR      70  64  83 CALM      30.03R                  
GAINESVILLE    FAIR      73  67  81 S3        30.05R                  
WILLISTON      FAIR      72  68  87 SE3       30.02R                  
PALATKA        FAIR     N/A N/A N/A CALM      30.04R                  
MAYPORT NAS    MOCLDY    74  69  85 S7        30.04R                  
JACKSONVILLE   CLOUDY    75  70  84 SE6       30.03R                  
JAX NAS        MOCLDY    77  69  76 SE7       30.04R                  
JAX CECIL      FAIR      72  70  94 CALM      30.04R                  
FERNANDINA BEA FAIR      74  70  87 S7        30.04S                  
ST AUGUSTINE   FAIR      72  69  90 S3        30.05S                  
PALM COAST     CLEAR     66  66 100 CALM      30.05R                  

STATION/POSITION SKY/WX   TEMP    WIND        PRES    WAVE   SWELL
                          AIR SEA DIR/SP/G            HT/PER HT/PER
                          (F)     (DEG/KT/KT) (MB)    (FT/S) (FT/S)
SHELL POINT      NOT AVBL
KEATON BEACH               72      60/  5/  6 1016.4R
CEDAR KEY                  79     160/ 14/ 16 1016.2R
FERNANDINA                 77 82  150/  6/  8 1017.9R
30.7N   81.3W                 79                N/A     3/ 4
MAYPORT                    74 81  160/  3/  6 1017.5R
31.4N   80.9W              78 77  190/ 14/ 16 1017.3R   3/ 4   2/ 7
ST AUGUSTINE               73 80  200/  7/  8 1017.5R

$$
FLZ040-043>046-052-053-057-058-063-144-221100-
INTERIOR CENTRAL FLORIDA
  
CITY           SKY/WX    TMP DP  RH WIND       PRES   REMARKS
OCALA          FAIR      74  68  81 VRB3      30.03R                  
LEESBURG       FAIR      75  68  78 S7        30.04R                  
SANFORD        FAIR      72  68  87 E3        30.03S                  
ORLANDO EXEC   FAIR      72  68  87 E3        30.03S                  
ORLANDO INTL   FAIR      71  67  87 SE3       30.03R                  
KISSIMMEE      FAIR      72  69  90 SE5       30.04R                  
WINTER HAVEN   FAIR      73  68  84 E6        30.03R                  
LAKELAND       FAIR      72  66  83 E3        30.03                   
BARTOW         FAIR      70  66  88 CALM      30.02R                  
SEBRING        FAIR      68  66  93 NE5       30.02R                  
OKEECHOBEE     FAIR      64  64 100 NE5       30.01R                  

$$
FLZ041-047-054-059-064-141-147-221100-
EAST CENTRAL FLORIDA
  
CITY           SKY/WX    TMP DP  RH WIND       PRES   REMARKS
DAYTONA BEACH  FAIR      69  69 100 CALM      30.04S                  
DELAND         FAIR      68  66  94 CALM      30.04R                  
JFK SPACE CTR  FAIR      67  65  93 CALM      30.03R                  
CAPE CANAVERAL FAIR      66  59  77 CALM      30.03R                  
PATRICK AFB    FAIR      74  69  84 CALM      30.03R                  
MELBOURNE      FAIR      69  65  86 W3        30.03R                  
VERO BEACH     FAIR      66  63  90 W3        30.02R                  
FT PIERCE      FAIR      64  61  90 CALM      30.02R                  
STUART         FAIR      70  64  83 CALM      30.02R                  

STATION/POSITION SKY/WX   TEMP    WIND        PRES    WAVE   SWELL
                          AIR SEA DIR/SP/G            HT/PER HT/PER
                          (F)     (DEG/KT/KT) (MB)    (FT/S) (FT/S)
28.5N   80.2W              78     150/  6/  8 1017.6
28.9N   78.5W              77 79  110/  4/  6 1017.7R   2/ 8   2/ 8
TRIDENT PIER               75 82  130/  3/  4 1018.4R
28.4N   80.5W                 80                N/A     3/ 4
27.5N   80.2W                 79                N/A     2/ 4

$$
FLZ050-056-061-142-242-148-248-149-249-151-251-155-255-
160-260-221100-
WEST CENTRAL FLORIDA
  
CITY           SKY/WX    TMP DP  RH WIND       PRES   REMARKS
CRYSTAL RIVER  FAIR      72  68  88 CALM      30.02R                  
INVERNESS      FAIR      70  70 100 CALM      30.03R                  
BROOKSVILLE    FAIR      71  67  87 E3        30.02S                  
CLEARWATER AIR FAIR      75  68  78 SE9       30.00S                  
ST PETE CLEARW FAIR      76  70  82 SE9       30.00S                  
TAMPA INTL     FAIR      77  69  76 SE6       30.01S                  
TAMPA EXEC     FAIR      70  68  94 CALM      30.02S                  
PLANT CITY     FAIR      73  72  94 CALM      30.04R                  
MACDILL AFB    FAIR      76  69  80 SE7       30.01R                  
PETER O KNIGHT CLOUDY    77  72  83 SE8       30.02R                  
ST PETERSBURG    N/A    N/A N/A N/A MISG      29.99R                  
SARASOTA       FAIR      74  69  85 SE7       29.99R                  
VENICE         FAIR      73  72  94 E5        30.01R                  

STATION/POSITION SKY/WX   TEMP    WIND        PRES    WAVE   SWELL
                          AIR SEA DIR/SP/G            HT/PER HT/PER
                          (F)     (DEG/KT/KT) (MB)    (FT/S) (FT/S)
27.3N   84.2W                 80                N/A     1/ 7
CLEARWATER BEACH           77 85  110/  8/ 10 1016.0R
MIDDLE TAMPA BAY           75     150/ 10/ 12 1016.0R
VENICE                     74 83   80/  6/  6 1015.9R

$$
FLZ066-069-070-075>078-162-262-165-265-221100-
SOUTHWEST FLORIDA AND KEYS
  
CITY           SKY/WX    TMP DP  RH WIND       PRES   REMARKS
PUNTA GORDA    MOCLDY    73  69  87 CALM      30.02R                  
FT MYERS       FAIR      73  70  90 E3        30.00R                  
SOUTHWEST INTL FAIR      73  69  87 CALM      30.00R                  
NAPLES         FAIR      72  70  93 E5        29.99R                  
MARCO ISLAND   FAIR      72  69  90 NE7       30.01R                  
IMMOKALEE      FOG       66  64  94 CALM      29.98S VSB 3/4          
MARATHON       FAIR      82  71  69 E6        29.97R                  
KEY WEST NAS   FAIR      82  71  69 E9        29.97R                  
KEY WEST INTL  FAIR      80  71  74 E13       29.97S                  

STATION/POSITION SKY/WX   TEMP    WIND        PRES    WAVE   SWELL
                          AIR SEA DIR/SP/G            HT/PER HT/PER
                          (F)     (DEG/KT/KT) (MB)    (FT/S) (FT/S)
NAPLES                     76 85              1015.6R
DRY TORTUGAS               80     130/ 13/ 14 1014.7R
SAND KEY                   81                 1014.6R
SOMBRERO KEY               81                 1014.2R

$$
FLZ067-068-071>074-168-172>174-221100-
SOUTHEAST FLORIDA 
  
CITY           SKY/WX    TMP DP  RH WIND       PRES   REMARKS
W PALM BEACH   FAIR      77  66  68 CALM      30.00S                  
FT LAUDER-EXEC FAIR      74  66  76 CALM      29.99R                  
FT LAUDERDALE  FAIR      77  65  66 SE5       29.98S                  
POMPANO BEACH  FAIR      76  65  68 CALM      29.99R                  
PEMBROKE PINES FAIR      73  66  78 CALM      30.00S                  
OPA LOCKA      FAIR      74  66  76 CALM      30.00R                  
MIAMI          FAIR      77  66  68 CALM      29.99R                  
WEST KENDALL   FAIR      70  66  87 CALM      29.99R                  
HOMESTEAD      FAIR      73  67  80 CALM      29.98R                  

STATION/POSITION SKY/WX   TEMP    WIND        PRES    WAVE   SWELL
                          AIR SEA DIR/SP/G            HT/PER HT/PER
                          (F)     (DEG/KT/KT) (MB)    (FT/S) (FT/S)
PORT EVERGLADES            79     130/  4/  6 1015.6
VIRGINIA KEY               79 85   90/  5/  6 1014.9R
LAKE WORTH                 79 81              1016.8R
SETTLEMENT POINT           78     110/  8/ 10 1016.3R

$$